Weather History for North Platte, NE

Change the Weather History Date:

Sunday, October 9, 2011

  Actual Average Record
Temperature  
Mean Temperature 51 °F 52 °F  
Max Temperature 57 °F 67 °F 89 °F (1953)
Min Temperature 45 °F 36 °F 21 °F (2009)
Degree Days  
Heating Degree Days 14 13  
Month to date heating degree days 30 106  
Since 1 July heating degree days 205 277  
Cooling Degree Days 0 0  
Month to date cooling degree days 17 0  
Year to date cooling degree days 921 765  
Moisture  
Dew Point 50 °F    
Average Humidity 86    
Maximum Humidity 100    
Minimum Humidity 72    
Precipitation  
Precipitation 0.05 in 0.05 in 1.04 in (1949)
Month to date precipitation 1.78 0.48  
Year to date precipitation 22.88 18.11  
Snow  
Snow 0.00 in 0.00 in 2.00 in (2009)
Month to date snowfall 0.0 0.3  
Since 1 July snowfall 0.0 0.5  
Since 1 September snowfall 0.0 0.5  
Snow Depth 0.00 in    
Sea Level Pressure  
Sea Level Pressure 30.05 in    
Wind  
Wind Speed 5 mph (ESE)    
Max Wind Speed 9 mph    
Max Gust Speed 12 mph    
Visibility 7 miles    
Events Rain    
T = Trace of Precipitation, MM = Missing Value Source: NWS Daily Summary

Daily Weather History Graph

Daily Weather History Graph

Search for Another Location

Airport:

Trip Planner

Search our weather history database for the weather conditions in past years. The results will help you decide how hot, cold, wet, or windy it might be!

Date:

Astronomy

Oct. 09, 2011 Rise Set
Actual Time 7:47 AM CDT 7:11 PM CDT
Civil Twilight 7:19 AM CDT 7:39 PM CDT
Nautical Twilight 6:48 AM CDT 8:11 PM CDT
Astronomical Twilight 6:16 AM CDT 8:43 PM CDT
Moon 5:50 PM CDT (10/9) 5:33 AM CDT (10/9)
Length of Visible Light 12h 19m
Length of Day
11h 24m
Waxing Gibbous, 95% of the Moon is Illuminated
Oct 9
Waxing Gibbous
Oct 11
Full
Oct 19
Last Quarter
Oct 26
New
Nov 2
First Quarter

Hourly Weather History & Observations

Time (CDT) Temp. Windchill Dew Point Humidity Pressure Visibility Wind Dir Wind Speed Gust Speed Precip Events Conditions
12:53 AM 53.1 °F - 52.0 °F 96% 30.03 in 10.0 mi East 5.8 mph - N/A   Mostly Cloudy
1:53 AM 55.0 °F - 53.1 °F 93% 30.04 in 10.0 mi ESE 6.9 mph - N/A   Overcast
2:46 AM 53.6 °F - 51.8 °F 94% 30.07 in 10.0 mi ESE 5.8 mph - N/A   Scattered Clouds
2:53 AM 52.0 °F - 52.0 °F 100% 30.04 in 10.0 mi ESE 4.6 mph - N/A   Partly Cloudy
3:37 AM 51.8 °F - 51.8 °F 100% 30.07 in 7.0 mi ESE 3.5 mph - N/A   Mostly Cloudy
3:44 AM 51.8 °F - 51.8 °F 100% 30.07 in 6.0 mi East 3.5 mph - N/A   Scattered Clouds
3:53 AM 51.1 °F - 50.0 °F 96% 30.04 in 5.0 mi East 4.6 mph - N/A   Scattered Clouds
4:41 AM 50.0 °F - 48.2 °F 94% 30.06 in 2.5 mi ESE 5.8 mph - N/A   Partly Cloudy
4:45 AM 50.0 °F - 48.2 °F 94% 30.06 in 1.2 mi ESE 5.8 mph - N/A   Scattered Clouds
4:50 AM 50.0 °F - 50.0 °F 100% 30.06 in 0.8 mi ESE 4.6 mph - N/A   Mostly Cloudy
4:53 AM 50.0 °F - 50.0 °F 100% 30.05 in 1.0 mi ESE 3.5 mph - N/A   Mostly Cloudy
5:00 AM 51.8 °F - 51.8 °F 100% 30.07 in 2.0 mi ESE 3.5 mph - N/A   Mostly Cloudy
5:09 AM 51.8 °F - 51.8 °F 100% 30.07 in 4.0 mi ESE 3.5 mph - N/A   Overcast
5:32 AM 51.8 °F - 51.8 °F 100% 30.07 in 1.8 mi East 3.5 mph - N/A   Overcast
5:49 AM 50.0 °F - 50.0 °F 100% 30.07 in 3.0 mi East 4.6 mph - N/A   Mostly Cloudy
5:50 AM 50.0 °F - 50.0 °F 100% 30.05 in 3.0 mi East 4.6 mph - N/A   Mostly Cloudy
5:57 AM 50.0 °F - 50.0 °F 100% 30.07 in 4.0 mi East 4.6 mph - N/A   Scattered Clouds
6:53 AM 52.0 °F - 51.1 °F 97% 30.05 in 7.0 mi East 5.8 mph - N/A   Partly Cloudy
7:48 AM 51.8 °F - 51.8 °F 100% 30.07 in 6.0 mi ESE 4.6 mph - N/A   Partly Cloudy
7:53 AM 52.0 °F - 52.0 °F 100% 30.06 in 7.0 mi ESE 6.9 mph - N/A   Clear
8:09 AM 51.8 °F - 51.8 °F 100% 30.07 in 5.0 mi ESE 3.5 mph - N/A   Partly Cloudy
8:53 AM 53.1 °F - 52.0 °F 96% 30.05 in 5.0 mi East 6.9 mph - N/A   Clear
9:30 AM 53.6 °F - 53.6 °F 100% 30.09 in 7.0 mi ESE 6.9 mph - N/A   Mostly Cloudy
9:49 AM 53.6 °F - 53.6 °F 100% 30.09 in 8.0 mi SE 5.8 mph - N/A   Mostly Cloudy
9:53 AM 54.0 °F - 53.1 °F 97% 30.08 in 9.0 mi SE 4.6 mph - N/A   Mostly Cloudy
10:00 AM 53.6 °F - 53.6 °F 100% 30.10 in 10.0 mi SE 4.6 mph - N/A   Mostly Cloudy
10:53 AM 55.0 °F - 52.0 °F 89% 30.06 in 10.0 mi SE 3.5 mph - N/A   Overcast
11:53 AM 55.9 °F - 51.1 °F 84% 30.04 in 10.0 mi SE 4.6 mph - N/A   Overcast
12:34 PM 55.4 °F - 50.0 °F 82% 30.07 in 10.0 mi South 8.1 mph - N/A   Overcast
12:45 PM 55.4 °F - 48.2 °F 77% 30.06 in 10.0 mi SSE 5.8 mph - N/A   Mostly Cloudy
12:53 PM 55.9 °F - 46.9 °F 72% 30.04 in 10.0 mi South 4.6 mph - N/A   Mostly Cloudy
1:53 PM 55.9 °F - 46.9 °F 72% 30.01 in 10.0 mi ESE 6.9 mph - N/A   Mostly Cloudy
2:53 PM 55.0 °F - 46.0 °F 72% 30.00 in 10.0 mi SSE 5.8 mph - N/A   Overcast
3:53 PM 54.0 °F - 46.0 °F 75% 29.99 in 10.0 mi SSE 5.8 mph - N/A   Overcast
4:53 PM 52.0 °F - 48.0 °F 86% 30.00 in 10.0 mi Calm Calm - 0.02 in Rain Light Rain
5:53 PM 52.0 °F - 50.0 °F 93% 30.01 in 10.0 mi SE 4.6 mph - 0.03 in Rain Light Rain
6:53 PM 51.1 °F - 50.0 °F 96% 30.00 in 10.0 mi ESE 4.6 mph - 0.00 in   Overcast
7:21 PM 51.8 °F - 50.0 °F 94% 30.01 in 10.0 mi SE 3.5 mph - N/A   Overcast
7:53 PM 51.1 °F - 48.9 °F 92% 30.01 in 10.0 mi SSE 4.6 mph - N/A   Mostly Cloudy
8:53 PM 48.2 °F - 48.2 °F 100% 30.03 in 10.0 mi SE 4.6 mph - N/A   Clear
9:53 PM 45.0 °F 42.6 °F 45.0 °F 100% 30.02 in 5.0 mi East 4.6 mph - N/A   Clear
10:01 PM 46.4 °F 44.3 °F 44.6 °F 93% 30.02 in 5.0 mi East 4.6 mph - N/A   Scattered Clouds
10:10 PM 46.4 °F 43.5 °F 46.4 °F 100% 30.03 in 6.0 mi ESE 5.8 mph - N/A   Mostly Cloudy
10:53 PM 48.9 °F - 48.0 °F 97% 30.02 in 10.0 mi SSE 6.9 mph - N/A   Mostly Cloudy
11:53 PM 50.0 °F - 48.9 °F 96% 30.02 in 10.0 mi South 5.8 mph - N/A   Overcast